MAPA DE AEROPUERTO

INFORMACIÓN METAR y TAF

METAR FOR LGSK
ADDS - METARS form results

(1558 UTC 07 May 2021)
Data provider http://aviationweather.gov/metar/data/
 
Forecast for: LGSK (SKIATHOS ISLAND , GR)
Text: TAF LGSK 071400Z 0715/0724 VRB05KT 9999 FEW020
Forecast period: 1500 UTC 07 May 2021 to 0000 UTC 08 May 2021
Forecast type: FROM: standard forecast or significant change
Winds: variable direction winds at 6 MPH (5 knots; 2.6 m/s)
Visibility: 6 or more miles (10+ km)
Ceiling: at least 12,000 feet AGL
Clouds: few clouds at 2000 feet AGL
Weather: no significant weather forecast for this period